Regional Weather Roundup
Issued by NWS

Home | Current Version | Previous Version | Graphics & Text | Print | Product List | Glossary On
Versions: 1 2 3 4 5 6 7 8 9 10 11 12 13 14 15 16 17 18 19 20 21 22 23 24 25 26 27 28 29 30 31 32 33 34 35 36 37 38 39 40 41 42 43 44 45 46 47 48 49 50
391
ASUS44 KLIX 230901
RWRLA
LOUISIANA WEATHER ROUNDUP
NATIONAL WEATHER SERVICE NEW ORLEANS LA
400 AM CDT SAT AUG 23 2014

NOTE: "FAIR" INDICATES FEW OR NO CLOUDS BELOW 12,000 FEET WITH NO
      SIGNIFICANT WEATHER AND/OR OBSTRUCTIONS TO VISIBILITY.
      SKY/WX - SKY CONDITION AND SIGNIFICANT WEATHER.
      TMP - AIR TEMPERATURE.    DP   - DEWPOINT TEMPERATURE.
      RH  - RELATIVE HUMIDITY.  PRES - PRESSURE.
      HX  - HEAT INDEX.         WCI  - WIND CHILL INDEX.

*  THESE STATIONS ARE NOT NWS OR FAA STATIONS AND ARE NOT UNDER
   NWS QUALITY CONTROL.

LAZ040-048-061>063-065-066-069-231000-
SOUTHEAST LOUISIANA

CITY           SKY/WX    TMP DP  RH WIND       PRES   REMARKS
N.O. AUDUBON     N/A     81  78  90 MISG        N/A
N.O. INTL ARPT PTCLDY    79  76  90 SW5       30.00S
N.O. LAKEFRONT CLEAR     84  77  79 W9        30.00S
N.O. DOWNTOWN* FAIR      82  73  74 CALM      30.01S
SLIDELL        CLEAR     77  73  87 CALM      29.99S
BATON ROUGE    CLEAR     78  75  90 CALM      30.01S
BOOTHVILLE     CLEAR     82  77  84 W5        30.00F
BELLE CHASSE   CLEAR     80  74  81 W3        30.00S
BOGALUSA*        N/A     78  74  88 CALM      30.02R
GALLIANO*      NOT AVBL
NEW ROADS*     FAIR      74  74  98 CALM      30.01R
GONZALES*      FAIR      78  78 100 CALM      30.00S
HAMMOND*       NOT AVBL
HOUMA*         CLEAR     76  73  90 CALM      30.00F
PORT FOURCHON* SUNNY     86  75  70 CALM      30.02S HX  95

$$

LAZ041-044-053-054-231000-
SOUTHWEST LOUISIANA

CITY           SKY/WX    TMP DP  RH WIND       PRES   REMARKS
LAKE CHARLES   CLEAR     79  76  90 CALM      30.00R
LAFAYETTE      CLEAR     79  76  90 CALM      30.01R
PATTERSON      CLEAR     77  75  94 CALM      30.03S
SALT POINT       N/A     84  79  85 CALM      29.99F HX  96
NEW IBERIA     CLEAR     77  75  93 CALM      30.01S
CHENAULT AIRPK CLEAR     78  75  92 CALM      30.02R

$$

LAZ027-028-231000-
CENTRAL LOUISIANA

CITY           SKY/WX    TMP DP  RH WIND       PRES   REMARKS
FORT POLK      CLEAR     77  73  87 CALM      30.01S
ALEXANDRIA INT CLEAR     74  73  97 CALM      29.99S
ALEXANDRIA     CLEAR     74  72  93 CALM      30.01S

$$

LAZ001-002-231000-
NORTHWEST LOUISIANA

CITY           SKY/WX    TMP DP  RH WIND       PRES   REMARKS
SHREVEPORT     CLEAR     75  71  87 W3        29.99S
BARKSDALE AFB  CLEAR     73  71  92 SE3       30.00S
DTN SHREVEPORT CLEAR     78  72  81 SW6       29.99S

$$

LAZ014-016-231000-
NORTHEAST LOUISIANA

CITY           SKY/WX    TMP DP  RH WIND       PRES   REMARKS
MONROE         PTCLDY    72  71  97 CALM      30.01S FOG
TALLULAH       CLEAR     71  69  93 CALM      30.01R

$$




USA.gov is the U.S. government's official web portal to all federal, state and local government web resources and services.